NSS-11 1 26554U 00059A 26255.25183634 .00000011 00000+0 00000+0 0 9998 2 26554 2.3455 80.2581 0002867 94.2757 83.3883 1.00272341042160 AMC-6 1 26580U 00067A 26255.26919882 .00000074 00000+0 00000+0 0 9998 2 26580 0.3700 83.6988 0004204 97.4928 131.9536 1.00272241094767 AMC-15 1 28446U 04041A 26255.26364411 -.00000103 00000+0 00000+0 0 9993 2 28446 0.0463 314.8365 0002066 224.1754 162.1068 1.00271600080175 NSS-10 1 28526U 05003A 26255.28680167 -.00000263 00000+0 00000+0 0 9999 2 28526 6.6637 69.3614 0002915 102.5225 245.2216 1.00271984054021 ASTRA 1KR 1 29055U 06012A 26255.22674140 .00000105 00000+0 00000+0 0 9990 2 29055 0.6933 82.7032 0003440 90.5445 278.6068 1.00272799046570 ASTRA 1L 1 31306U 07016A 26255.28940169 -.00000198 00000+0 00000+0 0 9993 2 31306 1.5406 80.7025 0004852 90.3576 259.9393 1.00271855045853 ASTRA 4A 1 32299U 07057A 26255.29520838 .00000018 00000+0 00000+0 0 9998 2 32299 0.0440 313.4455 0002348 221.8997 287.0391 1.00272623052522 ASTRA 1M 1 33436U 08057A 26255.22682808 .00000106 00000+0 00000+0 0 9990 2 33436 0.5153 82.6581 0003659 88.0090 281.6096 1.00271138046615 NSS-9 1 33749U 09008A 26255.11667426 .00000058 00000+0 00000+0 0 9997 2 33749 1.4803 81.6412 0002192 84.9224 49.6512 1.00273645064396 SES-7 (PROTOSTAR 2) 1 34941U 09027A 26255.00625756 -.00000360 00000+0 00000+0 0 9998 2 34941 0.0376 78.6265 0001483 147.2559 235.6482 1.00271038063508 NSS-12 1 36032U 09058A 26255.16295447 .00000000 00000+0 00000+0 0 9992 2 36032 0.0202 139.8770 0003296 352.4315 334.5244 1.00270911061797 SES-1 1 36516U 10016A 26255.20299463 -.00000130 00000+0 00000+0 0 9997 2 36516 0.0450 303.3656 0002495 238.1957 141.7460 1.00272125059909 ASTRA 3B 1 36581U 10021A 26255.22760808 .00000123 00000+0 00000+0 0 9994 2 36581 1.6871 82.3555 0003746 64.3517 309.9679 1.00271315059740 SES-3 1 37748U 11035A 26255.20256130 -.00000116 00000+0 00000+0 0 9995 2 37748 1.5455 81.9832 0002443 105.2775 133.8819 1.00274444055461 ASTRA 1N 1 37775U 11041A 26255.22674140 .00000105 00000+0 00000+0 0 9996 2 37775 0.0712 12.9078 0004899 136.3978 302.7419 1.00273043045404 SES-2 1 37809U 11049A 26255.27700829 -.00000210 00000+0 00000+0 0 9999 2 37809 0.2762 87.6783 0002815 82.6862 193.6410 1.00272460054839 QUETZSAT 1 1 37826U 11054A 26255.27900162 -.00000256 00000+0 00000+0 0 9996 2 37826 0.0445 297.0367 0002549 247.0091 190.6857 1.00271969050745 SES-4 1 38087U 12007A 26255.28992169 -.00000182 00000+0 00000+0 0 9992 2 38087 0.0189 53.5788 0002555 122.3641 257.7421 1.00272650053096 SES-5 1 38652U 12036A 26255.29520838 .00000000 00000+0 00000+0 0 9991 2 38652 0.0150 43.1070 0001973 124.0606 295.3840 1.00270079045338 ASTRA 2F 1 38778U 12051A 26255.22856141 .00000135 00000+0 00000+0 0 9998 2 38778 0.0691 257.8826 0004196 306.6952 257.1166 1.00272495042004 SES-6 1 39172U 13026A 26255.28619500 -.00000276 00000+0 00000+0 0 9999 2 39172 0.0564 294.7532 0002390 241.5795 237.5089 1.00271792048597 O3B FM5 1 39188U 13031A 26255.19223856 -.00000028 00000+0 00000+0 0 9992 2 39188 0.0828 318.5242 0002496 198.2460 203.2410 5.00115703241387 O3B FM4 1 39189U 13031B 26253.71254985 -.00000028 00000+0 00000+0 0 9996 2 39189 0.0404 352.7610 0004494 149.7641 217.5054 5.00115971241311 O3B FM2 1 39190U 13031C 26254.97731682 -.00000028 00000+0 00000+0 0 9991 2 39190 0.0348 358.6108 0002612 167.5788 193.8173 5.00116110241445 O3B PFM 1 39191U 13031D 26255.19133123 -.00000028 00000+0 00000+0 0 9993 2 39191 0.0618 338.2371 0004879 169.3616 212.4311 5.00116067241015 ASTRA 2E 1 39285U 13056A 26255.22856141 .00000135 00000+0 00000+0 0 9998 2 39285 0.0925 304.7836 0002167 223.6468 293.5786 1.00270892047294 SES-8 1 39460U 13071A 26255.09925419 -.00000285 00000+0 00000+0 0 9997 2 39460 0.0509 270.9830 0002016 240.1357 330.7289 1.00271990045301 ASTRA 5B 1 39617U 14011B 26255.22760808 .00000122 00000+0 00000+0 0 9999 2 39617 0.1039 293.5902 0002807 256.5197 266.5756 1.00269300045549 O3B FM3 1 40079U 14038A 26255.25805394 -.00000028 00000+0 00000+0 0 9991 2 40079 0.0486 353.4907 0003502 221.2929 145.1935 5.00115800217398 O3B FM7 1 40080U 14038B 26255.00430642 -.00000028 00000+0 00000+0 0 9996 2 40080 0.0422 348.3442 0002917 143.0257 228.6549 5.00115670222211 O3B FM6 1 40081U 14038C 26254.83137172 -.00000028 00000+0 00000+0 0 9999 2 40081 0.0458 352.1714 0002575 176.6296 191.2045 5.00115806222162 O3B FM8 1 40082U 14038D 26254.48478459 -.00000028 00000+0 00000+0 0 9997 2 40082 0.0450 351.3625 0002761 179.5150 189.1271 5.00116154222259 O3B FM10 1 40348U 14083A 26255.11175949 -.00000028 00000+0 00000+0 0 9991 2 40348 0.0488 347.3308 0002299 208.3403 164.3217 5.00115419214244 O3B FM11 1 40349U 14083B 26255.12443384 -.00000028 00000+0 00000+0 0 9994 2 40349 0.0541 348.0240 0002192 169.1251 202.8605 5.00115542214263 O3B FM12 1 40350U 14083C 26253.95202704 -.00000028 00000+0 00000+0 0 9994 2 40350 0.0535 348.6907 0002427 180.2202 191.0938 5.00115999214214 O3B FM9 1 40351U 14083D 26255.17818547 -.00000028 00000+0 00000+0 0 9999 2 40351 0.0542 346.8280 0002603 182.2768 190.9008 5.00116103214429 ASTRA 2G 1 40364U 14089A 26255.22856141 .00000000 00000+0 00000+0 0 9996 2 40364 0.0241 3.4847 0003069 89.5839 8.6126 1.00269841042844 SES-9 1 41380U 16013A 26254.98933646 .00000000 00000+0 00000+0 0 9992 2 41380 0.0136 165.4539 0001848 318.3296 331.6643 1.00267753038305 SES-10 1 42432U 17017A 26255.13842766 -.00000288 00000+0 00000+0 0 9995 2 42432 0.0178 71.2882 0002749 102.8037 160.0015 1.00272525034626 SES-15 1 42709U 17026A 26255.26868824 .00000045 00000+0 00000+0 0 9999 2 42709 0.0490 328.9875 0000366 178.6946 171.1639 1.00269096008307 SES-11 (ECHOSTAR 105) 1 42967U 17063A 26255.26364411 -.00000104 00000+0 00000+0 0 9996 2 42967 0.0486 308.3901 0002693 204.7083 188.1344 1.00271844032591 SES-14 1 43175U 18012B 26254.99976041 -.00000294 00000+0 00000+0 0 9990 2 43175 0.0232 64.5852 0001092 103.1240 135.7197 1.00271871007896 O3B FM15 1 43231U 18024A 26255.04514134 -.00000028 00000+0 00000+0 0 9999 2 43231 0.0560 356.2474 0002559 176.0680 187.6883 5.00115855155378 O3B FM16 1 43232U 18024B 26255.09744135 -.00000028 00000+0 00000+0 0 9991 2 43232 0.0585 359.5448 0002546 171.5161 188.9435 5.00116034155291 O3B FM14 1 43233U 18024C 26255.13828302 -.00000028 00000+0 00000+0 0 9996 2 43233 0.0582 0.8589 0002823 168.9563 190.1905 5.00115822155296 O3B FM13 1 43234U 18024D 26255.00429874 -.00000028 00000+0 00000+0 0 9994 2 43234 0.0570 342.1916 0000995 118.9964 258.8230 5.00115656155409 SES-12 1 43488U 18049A 26255.09925419 -.00000284 00000+0 00000+0 0 9991 2 43488 0.0183 66.9969 0001690 170.3429 244.5036 1.00270841030299 O3B FM20 1 44112U 19020A 26254.96447333 -.00000028 00000+0 00000+0 0 9991 2 44112 0.0542 353.2834 0002233 175.7208 191.0005 5.00115720135919 O3B FM19 1 44113U 19020B 26255.19132669 -.00000028 00000+0 00000+0 0 9991 2 44113 0.0774 341.0536 0002998 163.1211 215.8453 5.00116022135787 O3B FM17 1 44114U 19020C 26255.07166007 -.00000028 00000+0 00000+0 0 9992 2 44114 0.0479 14.2730 0002561 158.8558 186.8746 5.00115699135877 O3B FM18 1 44115U 19020D 26254.61825140 -.00000028 00000+0 00000+0 0 9992 2 44115 0.0545 352.8386 0002738 178.3371 188.8287 5.00115419135968 SES-17 1 49332U 21095A 26255.28099498 -.00000287 00000+0 00000+0 0 9993 2 49332 0.0320 52.8588 0001006 113.8699 218.6220 1.00270681018722 SES-22 1 52933U 22071A 26255.26919882 .00000000 00000+0 00000+0 0 9997 2 52933 0.0188 173.0500 0001036 347.7173 148.4170 1.00272241008393 SES-20 1 53960U 22123A 26255.20256130 -.00000116 00000+0 00000+0 0 9999 2 53960 0.0239 93.4027 0001703 12.6293 215.0046 1.00271055014406 SES-21 1 53961U 22123B 26255.26834159 .00000055 00000+0 00000+0 0 9990 2 53961 0.0326 63.4859 0001032 107.7078 145.6917 1.00270961008083 O3B MPOWER F1 1 54755U 22174A 26255.27146160 -.00000028 00000+0 00000+0 0 9998 2 54755 0.0432 340.9705 0006914 195.7853 139.3473 5.00114440069715 O3B MPOWER F2 1 54756U 22174B 26255.06258727 -.00000028 00000+0 00000+0 0 9999 2 54756 0.0401 344.7420 0005514 180.7390 194.5347 5.00118290069791 SES-18 1 55970U 23038A 26255.20256130 -.00000116 00000+0 00000+0 0 9998 2 55970 0.0498 277.7391 0002059 304.7151 98.5744 1.00271790012975 SES-19 1 55971U 23038B 26255.26919882 .00000073 00000+0 00000+0 0 9996 2 55971 0.0566 280.7476 0001754 251.7364 140.8202 1.00273273012965 O3B MPOWER F4 1 56367U 23059A 26255.12680882 -.00000028 00000+0 00000+0 0 9990 2 56367 0.0603 342.9417 0007701 185.6439 191.4317 5.00115023062943 O3B MPOWER F3 1 56368U 23059B 26254.56031177 -.00000028 00000+0 00000+0 0 9995 2 56368 0.0607 342.0462 0006440 181.0984 196.8764 5.00114921059052 O3B MPOWER F5 1 58346U 23175A 26255.26087970 -.00000028 00000+0 00000+0 0 9992 2 58346 0.0601 3.8698 0006193 184.3133 171.8068 5.00115605053788 O3B MPOWER F6 1 58347U 23175B 26248.96488131 -.00000023 00000+0 00000+0 0 9991 2 58347 0.0576 356.5617 0004475 173.7664 189.6806 5.00115509052397 ASTRA 1P (SES-24) 1 60086U 24115A 26255.15550109 .00000105 00000+0 00000+0 0 9993 2 60086 0.0625 336.9134 0002113 247.7496 201.6893 1.00275968008061 O3B MPOWER F7 1 62362U 24244A 26255.02802274 -.00000028 00000+0 00000+0 0 9999 2 62362 0.0595 334.9405 0005713 190.8424 194.2329 5.00115428030876 O3B MPOWER F8 1 62363U 24244B 26255.19492661 -.00000028 00000+0 00000+0 0 9993 2 62363 0.0312 36.3958 0005246 124.3525 199.2715 5.00114702025215 O3B MPOWER F9 1 64866U 25153A 26255.12822191 -.00000028 00000+0 00000+0 0 9991 2 64866 0.0665 357.3633 0007301 186.1927 176.4387 5.00115385023913 O3B MPOWER F10 1 64867U 25153B 26255.09436900 -.00000028 00000+0 00000+0 0 9997 2 64867 0.0622 355.5922 0004500 270.7541 93.6022 5.00114844026387